Garrison, ND

12:03 PM CST on February 23, 2017 (GMT -0600)
Garrison

Weather History for KN60 - January, 2013

Change the Weather History Date:

Wednesday, January 16, 2013

  Actual Average Record
Temperature  
Mean Temperature 28 °F -  
Max Temperature 37 °F - 30 °F (2015)
Min Temperature 19 °F - -18 °F (2016)
Degree Days  
Heating Degree Days 37    
Cooling Degree Days 0    
Moisture  
Dew Point 23 °F    
Average Humidity 83    
Maximum Humidity 89    
Minimum Humidity 75    
Precipitation  
Precipitation 0.01 in - 0.00 in (2017)
Month to date precipitation  
Year to date precipitation  
Sea Level Pressure  
Sea Level Pressure 29.98 in    
Wind  
Wind Speed 14 mph (NW)    
Max Wind Speed 22 mph    
Max Gust Speed 29 mph    
T = Trace of Precipitation, MM = Missing Value Source: NWS Daily Summary

Daily Weather History Graph

Daily Weather History Graph

Search for Another Location

Airport or City:

Trip Planner

Search our weather history database for the weather conditions in past years. The results will help you decide how hot, cold, wet, or windy it might be!

Date:

Astronomy

Jan. 16, 2013 Rise Set
Actual Time 8:28 AM CST 5:23 PM CST
Civil Twilight 7:53 AM CST 5:57 PM CST
Nautical Twilight 7:15 AM CST 6:36 PM CST
Astronomical Twilight 6:38 AM CST 7:12 PM CST
Moon 10:38 AM CST (1/16) 11:46 PM CST (1/16)
Length of Visible Light 10h 04m
Length of Day
8h 54m
Waxing Crescent, 28% of the Moon is Illuminated
Jan 16
Waxing Crescent
Jan 18
First Quarter
Jan 26
Full
Feb 3
Last Quarter
Feb 10
New

Hourly Weather History & Observations

Time (CST) Temp. Windchill Dew Point Humidity Pressure Visibility Wind Dir Wind Speed Gust Speed Precip Events Conditions
12:52 AM 37.0 °F 26.4 °F 32.0 °F 82% 29.72 in - WNW 20.7 mph - N/A   Unknown
1:52 AM 37.0 °F 26.2 °F 30.9 °F 79% 29.73 in - WNW 21.9 mph 28.8 mph 0.01 in   Unknown
2:52 AM 37.0 °F 27.0 °F 32.0 °F 82% 29.74 in - WNW 18.4 mph 25.3 mph N/A   Unknown
3:52 AM 36.0 °F 26.7 °F 32.0 °F 86% 29.73 in - WNW 15.0 mph - N/A   Unknown
4:52 AM 36.0 °F 28.0 °F 32.0 °F 86% 29.73 in - WNW 11.5 mph - N/A   Unknown
5:52 AM 36.0 °F 26.7 °F 30.9 °F 82% 29.72 in - WNW 15.0 mph 24.2 mph N/A   Unknown
6:52 AM 36.0 °F 26.0 °F 30.9 °F 82% 29.72 in - WNW 17.3 mph 24.2 mph N/A   Unknown
7:52 AM 36.0 °F 25.3 °F 30.9 °F 82% 29.75 in - NW 19.6 mph - N/A   Unknown
8:52 AM 30.0 °F 21.7 °F 27.0 °F 88% 29.83 in - NNE 9.2 mph - N/A   Unknown
9:52 AM 26.1 °F 16.2 °F 23.0 °F 88% 29.92 in - NNE 10.4 mph - N/A   Unknown
10:52 AM 25.0 °F 14.8 °F 19.9 °F 81% 29.97 in - NNE 10.4 mph - N/A   Unknown
11:52 AM 24.1 °F 15.2 °F 19.9 °F 84% 30.00 in - NNE 8.1 mph - N/A   Unknown
12:52 PM 23.0 °F 13.9 °F 18.0 °F 81% 30.03 in - NNE 8.1 mph - N/A   Unknown
1:52 PM 23.0 °F 15.8 °F 18.0 °F 81% 30.08 in - NNE 5.8 mph - N/A   Unknown
2:52 PM 21.9 °F 12.5 °F 15.1 °F 75% 30.11 in - North 8.1 mph 16.1 mph N/A   Unknown
3:52 PM 21.0 °F 12.4 °F 15.1 °F 78% 30.14 in - NNW 6.9 mph - N/A   Unknown
4:52 PM 21.0 °F 10.6 °F 15.1 °F 78% 30.16 in - NNE 9.2 mph - N/A   Unknown
5:52 PM 21.0 °F - 15.1 °F 78% 30.17 in - Calm Calm - N/A   Unknown
6:52 PM 19.0 °F 12.3 °F 15.1 °F 85% 30.19 in - SSE 4.6 mph - N/A   Unknown
7:52 PM 19.9 °F - 16.0 °F 85% 30.20 in - Calm Calm - N/A   Unknown
8:52 PM 19.9 °F 11.1 °F 16.0 °F 85% 30.21 in - SW 6.9 mph - N/A   Unknown
9:52 PM 19.9 °F - 17.1 °F 89% 30.21 in - Calm Calm - N/A   Unknown
10:52 PM 24.1 °F 13.7 °F 19.9 °F 84% 30.22 in - West 10.4 mph - N/A   Unknown
11:52 PM 25.0 °F 15.5 °F 21.9 °F 88% 30.21 in - West 9.2 mph - N/A   Unknown